Skip Page Navigation
NASA JPL Caltech
NASA Logo - Jet Propulsion Laboratory + View the NASA Portal
+ Center for Near-Earth Object Studies
JPL Home Earth Solar System Stars & Galaxies Technology
JPL Solar System Dynamics
BODIES ORBITS EPHEMERIDES TOOLS PHYSICAL DATA DISCOVERY FAQ SITE MAP
IMPORTANT: The SSD Announcement email list is now available. Major changes are coming in the near future, including possible hostname and/or URL changes. To be notified of such changes, subscribe to this email list.

Please visit this page for more details.


JPL Small-Body Database Browser
Search: [ help ]  
172932 Bachleitner (2005 JC)
Classification: Main-belt Asteroid          SPK-ID: 2172932
Ephemeris | Orbit Diagram | Orbital Elements | Mission Design | Physical Parameters | Discovery Circumstances ]

[ show orbit diagram ]
Orbital Elements at Epoch 2458600.5 (2019-Apr-27.0) TDB
Reference: JPL 16 (heliocentric ecliptic J2000)
 Element Value Uncertainty (1-sigma)   Units 
e .1222936666541714 3.5651e-08  
a 2.538231264083102 2.1107e-08 au
q 2.227821655982127 9.4766e-08 au
i 9.26076967026512 5.4437e-06 deg
node 106.3407208767661 3.2917e-05 deg
peri 43.0952647930979 4.3508e-05 deg
M 234.3035288671236 3.0237e-05 deg
tp 2459116.222162489383
(2020-Sep-23.72216249)
0.00012669 TDB
period 1477.050046217389
4.04
1.8424e-05
5.044e-08
d
yr
n .2437290469080125 3.0401e-09 deg/d
Q 2.848640872184077 2.3688e-08 au
  Orbit Determination Parameters
   # obs. used (total)      298  
   data-arc span      6824 days (18.68 yr)  
   first obs. used      1999-12-08  
   last obs. used      2018-08-14  
   planetary ephem.      DE431  
   SB-pert. ephem.      SB431-N16  
   condition code      0  
   norm. resid. RMS      .5517  
   source      ORB  
   producer      Otto Matic  
   solution date      2019-Jul-14 03:16:28  

Additional Information
 Earth MOID = 1.25031 au 
 Jupiter MOID = 2.19055 au 
 T_jup = 3.418 
[ show covariance matrix ]

Ephemeris | Orbit Diagram | Orbital Elements | Mission Design | Physical Parameters | Discovery Circumstances ]

Physical Parameter Table
Parameter Symbol Value Units Sigma Reference Notes
absolute magnitude H 16.2   n/a MPO454186  

172932 Bachleitner           Discovered 2005 May 1 by W. Ries at Altschwendt.
Johannes Bachleitner (b. 1965) is a well-known Austrian amateur astronomer and astrophotographer. He has discovered some minor planets at his private observatory.
NOTE: some special characters may not display properly (any characters within {} are an attempt to place the proper accent above a character)
Reference: MPC batch dated 2015-01-05Last Updated: 2015-01-07

Alternate Designations
 2005 JC = 1999 XD263 
Ephemeris | Orbit Diagram | Orbital Elements | Mission Design | Physical Parameters | Discovery Circumstances ]
ABOUT SSD CREDITS/AWARDS PRIVACY/COPYRIGHT GLOSSARY LINKS
FirstGov 2019-Oct-20 02:19 UT
(server date/time)  
NASA Home Page
Site Manager:   Ryan S. Park
Webmaster  Alan B. Chamberlin